,,Stat6,,Stat2,,Stat8,,Stat9,,Stat10,,Wind1,,Wind1,
time,status,PA1M_AVG,status,PR1M_SUM,status,RH1M_AVG,status,SR1M_AVG,status,TA1M_AVG,status,W1dAve1m,status,W1sAve1m,
2003-11-27, 00:00:00,VALID,917.646,VALID,0,VALID,99.8922,VALID,0.101885,VALID,19.8786,VALID,120,VALID,0.747852,
2003-11-27, 00:01:00,VALID,917.633,VALID,0,VALID,99.896,VALID,0,VALID,19.8719,VALID,140,VALID,0.376635,
2003-11-27, 00:02:00,VALID,917.634,VALID,0,VALID,99.9316,VALID,0.0169808,VALID,19.8818,VALID,115,VALID,0.55231,
2003-11-27, 00:03:00,VALID,917.627,VALID,0,VALID,99.9341,VALID,0.0169808,VALID,19.8659,VALID,127,VALID,0.947798,
2003-11-27, 00:04:00,VALID,917.617,VALID,0,VALID,99.9367,VALID,0.0849042,VALID,19.8557,VALID,137,VALID,1.04581,
2003-11-27, 00:05:00,VALID,917.599,VALID,0,VALID,99.9596,VALID,0.0509425,VALID,19.8426,VALID,147,VALID,0.982515,
2003-11-27, 00:06:01,VALID,917.587,VALID,0,VALID,99.9583,VALID,-0.0509425,VALID,19.8336,VALID,141,VALID,0.917151,
2003-11-27, 00:07:00,VALID,917.573,VALID,0,VALID,99.9583,VALID,-0.0679233,VALID,19.8284,VALID,140,VALID,0.871449,
2003-11-27, 00:08:01,VALID,917.561,VALID,0,VALID,99.9847,VALID,-0.0849042,VALID,19.8284,VALID,125,VALID,0.820126,
2003-11-27, 00:09:00,VALID,917.542,VALID,0,VALID,99.985,VALID,-0.0849042,VALID,19.815,VALID,114,VALID,0.587713,
2003-11-27, 00:10:00,VALID,917.531,VALID,0,VALID,99.9977,VALID,-0.0849042,VALID,19.8252,VALID,128,VALID,0.721058,
2003-11-27, 00:11:00,VALID,917.52,VALID,0,VALID,100,VALID,-0.0339617,VALID,19.8225,VALID,124,VALID,0.614702,
2003-11-27, 00:12:01,VALID,917.51,VALID,0,VALID,99.999,VALID,-0.0509425,VALID,19.7949,VALID,113,VALID,0.526325,
2003-11-27, 00:13:00,VALID,917.479,VALID,0,VALID,100,VALID,-0.0679233,VALID,19.7994,VALID,109,VALID,0.278088,
2003-11-27, 00:14:01,VALID,917.47,VALID,0,VALID,100,VALID,-0.0849042,VALID,19.8158,VALID,44,VALID,0.353659,
2003-11-27, 00:15:00,VALID,917.452,VALID,0,VALID,100,VALID,-0.0679233,VALID,19.8319,VALID,40,VALID,0.46875,
2003-11-27, 00:16:00,VALID,917.441,VALID,0,VALID,100,VALID,-0.0849042,VALID,19.8379,VALID,53,VALID,0.624805,
2003-11-27, 00:17:01,VALID,917.434,VALID,0,VALID,100,VALID,-0.0679233,VALID,19.8317,VALID,64,VALID,0.791667,
2003-11-27, 00:18:01,VALID,917.421,VALID,0,VALID,99.9705,VALID,-0.0849042,VALID,19.8023,VALID,72,VALID,0.814538,
2003-11-27, 00:19:00,VALID,917.407,VALID,0,VALID,99.9023,VALID,-0.0509425,VALID,19.7735,VALID,75,VALID,0.765092,
2003-11-27, 00:20:00,VALID,917.408,VALID,0,VALID,99.8273,VALID,-0.0509425,VALID,19.7671,VALID,74,VALID,0.576029,
2003-11-27, 00:21:00,VALID,917.4,VALID,0,VALID,99.8133,VALID,-0.0339617,VALID,19.7377,VALID,74,VALID,0.708576,
2003-11-27, 00:22:00,VALID,917.396,VALID,0,VALID,99.7396,VALID,-0.0679233,VALID,19.7444,VALID,80,VALID,0.427507,
2003-11-27, 00:23:00,VALID,917.384,VALID,0,VALID,99.751,VALID,-0.0849042,VALID,19.735,VALID,51,VALID,0.573038,
2003-11-27, 00:24:00,VALID,917.37,VALID,0,VALID,99.6798,VALID,-0.0339617,VALID,19.7151,VALID,50,VALID,0.571075,
2003-11-27, 00:25:00,VALID,917.36,VALID,0,VALID,99.6836,VALID,-0.0509425,VALID,19.689,VALID,47,VALID,0.752208,
2003-11-27, 00:26:01,VALID,917.359,VALID,0,VALID,99.6633,VALID,-0.0509425,VALID,19.6858,VALID,41,VALID,0.794876,
2003-11-27, 00:27:00,VALID,917.335,VALID,0,VALID,99.6124,VALID,-0.0509425,VALID,19.6731,VALID,45,VALID,0.670313,
2003-11-27, 00:28:00,VALID,917.334,VALID,0,VALID,99.6696,VALID,-0.0169808,VALID,19.6597,VALID,36,VALID,0.589749,
2003-11-27, 00:29:00,VALID,917.318,VALID,0,VALID,99.6696,VALID,-0.0169808,VALID,19.6667,VALID,31,VALID,0.554142,
2003-11-27, 00:30:01,VALID,917.31,VALID,0,VALID,99.6493,VALID,-0.0679233,VALID,19.6344,VALID,31,VALID,0.606286,
2003-11-27, 00:31:00,VALID,917.294,VALID,0,VALID,99.6366,VALID,-0.101885,VALID,19.6282,VALID,34,VALID,0.357469,
2003-11-27, 00:32:01,VALID,917.278,VALID,0,VALID,99.6175,VALID,-0.101885,VALID,19.6083,VALID,42,VALID,0.231836,
2003-11-27, 00:33:00,VALID,917.252,VALID,0,VALID,99.5768,VALID,-0.0339617,VALID,19.5795,VALID,54,VALID,0.336496,
2003-11-27, 00:34:00,VALID,917.235,VALID,0,VALID,99.5743,VALID,-0.0679233,VALID,19.5673,VALID,96,VALID,0.637536,
2003-11-27, 00:35:00,VALID,917.213,VALID,0,VALID,99.6429,VALID,-0.0849042,VALID,19.5345,VALID,114,VALID,0.392188,
2003-11-27, 00:36:00,VALID,917.211,VALID,0,VALID,99.6735,VALID,-0.0679233,VALID,19.5149,VALID,112,VALID,0.322088,
2003-11-27, 00:37:01,VALID,917.193,VALID,0,VALID,99.6824,VALID,-0.0339617,VALID,19.4953,VALID,107,VALID,0.423874,
2003-11-27, 00:38:00,VALID,917.183,VALID,0,VALID,99.751,VALID,-0.0849042,VALID,19.496,VALID,93,VALID,0.290365,
2003-11-27, 00:39:01,VALID,917.163,VALID,0,VALID,99.7637,VALID,-0.0849042,VALID,19.4766,VALID,93,VALID,0.219866,
2003-11-27, 00:40:00,VALID,917.167,VALID,0,VALID,99.826,VALID,-0.0679233,VALID,19.4764,VALID,93,VALID,0.280007,
2003-11-27, 00:41:00,VALID,917.167,VALID,0,VALID,99.8845,VALID,-0.0849042,VALID,19.4928,VALID,93,VALID,0.18564,
2003-11-27, 00:42:01,VALID,917.164,VALID,0,VALID,99.9074,VALID,-0.101885,VALID,19.5025,VALID,92,VALID,0.281836,
2003-11-27, 00:43:00,VALID,917.169,VALID,0,VALID,99.9189,VALID,-0.101885,VALID,19.4992,VALID,81,VALID,0.421317,
2003-11-27, 00:44:00,VALID,917.163,VALID,0,VALID,99.9456,VALID,-0.101885,VALID,19.502,VALID,31,VALID,0.545632,
2003-11-27, 00:45:01,VALID,917.168,VALID,0,VALID,99.9367,VALID,-0.0849042,VALID,19.5159,VALID,31,VALID,0.469351,
2003-11-27, 00:46:01,VALID,917.17,VALID,0,VALID,99.9341,VALID,-0.0849042,VALID,19.5025,VALID,30,VALID,0.462573,
2003-11-27, 00:47:00,VALID,917.16,VALID,0,VALID,99.9036,VALID,-0.101885,VALID,19.4769,VALID,30,VALID,0.42024,
2003-11-27, 00:48:01,VALID,917.142,VALID,0,VALID,99.8426,VALID,-0.0849042,VALID,19.4215,VALID,30,VALID,0.432736,
2003-11-27, 00:49:00,VALID,917.146,VALID,0,VALID,99.8299,VALID,-0.101885,VALID,19.3827,VALID,30,VALID,0.310724,
2003-11-27, 00:50:01,VALID,917.133,VALID,0,VALID,99.8845,VALID,-0.101885,VALID,19.3701,VALID,30,VALID,0.077381,
2003-11-27, 00:51:01,VALID,917.128,VALID,0,VALID,99.9532,VALID,-0.0849042,VALID,19.386,VALID,30,VALID,0,
2003-11-27, 00:52:01,VALID,917.122,VALID,0,VALID,99.9672,VALID,-0.0679233,VALID,19.3989,VALID,30,VALID,0.260298,
2003-11-27, 00:53:00,VALID,917.113,VALID,0,VALID,99.9758,VALID,-0.101885,VALID,19.3795,VALID,30,VALID,0.485677,
2003-11-27, 00:54:00,VALID,917.1,VALID,0,VALID,99.9545,VALID,-0.0339617,VALID,19.3542,VALID,30,VALID,0.407639,
2003-11-27, 00:55:00,VALID,917.089,VALID,0,VALID,99.9545,VALID,-0.0849042,VALID,19.3313,VALID,30,VALID,0.417597,
2003-11-27, 00:56:01,VALID,917.066,VALID,0,VALID,99.9672,VALID,-0.101885,VALID,19.3216,VALID,30,VALID,0.345203,
2003-11-27, 00:57:00,VALID,917.042,VALID,0,VALID,99.9964,VALID,-0.0169808,VALID,19.3156,VALID,30,VALID,0.312863,
2003-11-27, 00:58:00,VALID,917.034,VALID,0,VALID,100,VALID,-0.0509425,VALID,19.3152,VALID,30,VALID,0.305753,
2003-11-27, 00:59:01,VALID,917.015,VALID,0,VALID,100,VALID,-0.0509425,VALID,19.2888,VALID,30,VALID,0.354048,
2003-11-27, 01:00:01,VALID,917.001,VALID,0,VALID,100,VALID,-0.0679233,VALID,19.2893,VALID,30,VALID,0.309642,
2003-11-27, 01:01:00,VALID,916.996,VALID,0,VALID,100,VALID,-0.101885,VALID,19.2792,VALID,30,VALID,0.294829,
2003-11-27, 01:02:00,VALID,916.988,VALID,0,VALID,100,VALID,-0.0509425,VALID,19.2831,VALID,30,VALID,0.119093,
2003-11-27, 01:03:01,VALID,916.994,VALID,0,VALID,100,VALID,-0.0509425,VALID,19.2729,VALID,30,VALID,0.000545058,
2003-11-27, 01:04:00,VALID,916.977,VALID,0,VALID,100,VALID,-0.0339617,VALID,19.2603,VALID,33,VALID,0.159884,
2003-11-27, 01:05:01,VALID,916.972,VALID,0,VALID,100,VALID,-0.0849042,VALID,19.2697,VALID,97,VALID,0.439406,
2003-11-27, 01:06:01,VALID,916.956,VALID,0,VALID,100,VALID,-0.101885,VALID,19.27,VALID,119,VALID,0.465216,
2003-11-27, 01:07:01,VALID,916.95,VALID,0,VALID,100,VALID,-0.0679233,VALID,19.2799,VALID,119,VALID,0.559411,
2003-11-27, 01:08:01,VALID,916.948,VALID,0,VALID,100,VALID,-0.0509425,VALID,19.27,VALID,119,VALID,0.602273,
2003-11-27, 01:09:01,VALID,916.937,VALID,0,VALID,100,VALID,-0.0679233,VALID,19.2635,VALID,83,VALID,0.453307,
2003-11-27, 01:10:01,VALID,916.929,VALID,0,VALID,100,VALID,-0.0679233,VALID,19.2826,VALID,62,VALID,0.463728,
2003-11-27, 01:11:01,VALID,916.925,VALID,0,VALID,100,VALID,-0.0849042,VALID,19.2891,VALID,62,VALID,0.437137,
2003-11-27, 01:12:00,VALID,916.914,VALID,0,VALID,100,VALID,-0.0509425,VALID,19.2923,VALID,62,VALID,0.429865,
2003-11-27, 01:13:01,VALID,916.922,VALID,0,VALID,100,VALID,-0.0849042,VALID,19.3025,VALID,62,VALID,0.370584,
2003-11-27, 01:14:01,VALID,916.905,VALID,0,VALID,100,VALID,-0.101885,VALID,19.293,VALID,80,VALID,0.520579,
2003-11-27, 01:15:01,VALID,916.891,VALID,0,VALID,100,VALID,-0.101885,VALID,19.2764,VALID,99,VALID,0.48492,
2003-11-27, 01:16:01,VALID,916.882,VALID,0,VALID,100,VALID,-0.101885,VALID,19.2898,VALID,90,VALID,0.485938,
2003-11-27, 01:17:01,VALID,916.875,VALID,0,VALID,100,VALID,-0.101885,VALID,19.306,VALID,83,VALID,0.476749,
2003-11-27, 01:18:01,VALID,916.861,VALID,0,VALID,100,VALID,-0.101885,VALID,19.2893,VALID,97,VALID,0.479106,
2003-11-27, 01:19:01,VALID,916.855,VALID,0,VALID,100,VALID,-0.101885,VALID,19.296,VALID,61,VALID,0.515997,
2003-11-27, 01:20:01,VALID,916.862,VALID,0,VALID,100,VALID,-0.0849042,VALID,19.3345,VALID,21,VALID,0.468178,
2003-11-27, 01:21:01,VALID,916.856,VALID,0,VALID,99.999,VALID,-0.0339617,VALID,19.3502,VALID,21,VALID,0.197222,
2003-11-27, 01:22:01,VALID,916.866,VALID,0,VALID,99.9036,VALID,0,VALID,19.3726,VALID,21,VALID,0.176781,
2003-11-27, 01:23:01,VALID,916.861,VALID,0,VALID,99.737,VALID,0,VALID,19.34,VALID,21,VALID,0.00486111,
2003-11-27, 01:24:01,VALID,916.865,VALID,0,VALID,99.7548,VALID,-0.0169808,VALID,19.3661,VALID,21,VALID,0.304865,
2003-11-27, 01:25:01,VALID,916.857,VALID,0,VALID,99.6836,VALID,0,VALID,19.3815,VALID,21,VALID,0.249805,
2003-11-27, 01:26:01,VALID,916.855,VALID,0,VALID,99.353,VALID,-0.0169808,VALID,19.3788,VALID,22,VALID,0.449695,
2003-11-27, 01:27:01,VALID,916.842,VALID,0,VALID,99.1139,VALID,0,VALID,19.3405,VALID,84,VALID,0.531783,
2003-11-27, 01:28:01,VALID,916.83,VALID,0,VALID,98.9766,VALID,0,VALID,19.3274,VALID,101,VALID,0.268973,
2003-11-27, 01:29:01,VALID,916.828,VALID,0,VALID,98.913,VALID,-0.0169808,VALID,19.344,VALID,101,VALID,0.380859,
2003-11-27, 01:30:01,VALID,916.82,VALID,0,VALID,98.8787,VALID,-0.0169808,VALID,19.3626,VALID,109,VALID,0.398056,
2003-11-27, 01:31:01,VALID,916.821,VALID,0,VALID,98.8507,VALID,0.0339617,VALID,19.4113,VALID,113,VALID,0.452195,
2003-11-27, 01:32:01,VALID,916.809,VALID,0,VALID,98.8139,VALID,0,VALID,19.4307,VALID,126,VALID,0.540153,
2003-11-27, 01:33:01,VALID,916.803,VALID,0,VALID,98.8215,VALID,-0.0169808,VALID,19.4468,VALID,148,VALID,0.7413,
2003-11-27, 01:34:01,VALID,916.789,VALID,0,VALID,98.7986,VALID,0,VALID,19.456,VALID,154,VALID,0.724432,
2003-11-27, 01:35:01,VALID,916.793,VALID,0,VALID,98.7846,VALID,0,VALID,19.4692,VALID,139,VALID,0.664063,
2003-11-27, 01:36:01,VALID,916.783,VALID,0,VALID,98.8139,VALID,0,VALID,19.4722,VALID,132,VALID,0.780185,
2003-11-27, 01:37:01,VALID,916.774,VALID,0,VALID,98.7782,VALID,0,VALID,19.4824,VALID,135,VALID,0.662348,
2003-11-27, 01:38:01,VALID,916.772,VALID,0,VALID,98.8355,VALID,0,VALID,19.4694,VALID,125,VALID,0.751562,
2003-11-27, 01:39:01,VALID,916.779,VALID,0,VALID,98.8723,VALID,0,VALID,19.4498,VALID,119,VALID,0.556593,
2003-11-27, 01:40:01,VALID,916.766,VALID,0,VALID,98.9372,VALID,0,VALID,19.4434,VALID,127,VALID,0.791481,
2003-11-27, 01:41:01,VALID,916.782,VALID,0,VALID,99.0618,VALID,0,VALID,19.4371,VALID,128,VALID,0.636265,
2003-11-27, 01:42:00,VALID,916.781,VALID,0,VALID,99.1559,VALID,0.0169808,VALID,19.4304,VALID,129,VALID,0.60434,
2003-11-27, 01:43:00,VALID,916.787,VALID,0,VALID,99.2564,VALID,0,VALID,19.4334,VALID,131,VALID,0.476389,
2003-11-27, 01:44:00,VALID,916.783,VALID,0,VALID,99.2856,VALID,0,VALID,19.427,VALID,145,VALID,0.47237,
2003-11-27, 01:45:00,VALID,916.777,VALID,0,VALID,99.3047,VALID,0,VALID,19.4205,VALID,149,VALID,0.519985,
2003-11-27, 01:46:00,VALID,916.774,VALID,0,VALID,99.367,VALID,0,VALID,19.4175,VALID,149,VALID,0.316229,
2003-11-27, 01:47:00,VALID,916.764,VALID,0,VALID,99.3899,VALID,0.0169808,VALID,19.4178,VALID,153,VALID,0.453316,
2003-11-27, 01:48:00,VALID,916.756,VALID,0,VALID,99.4191,VALID,0,VALID,19.4046,VALID,155,VALID,0.44093,
2003-11-27, 01:49:00,VALID,916.742,VALID,0,VALID,99.484,VALID,0,VALID,19.4116,VALID,158,VALID,0.428267,
2003-11-27, 01:50:00,VALID,916.748,VALID,0,VALID,99.5031,VALID,-0.0169808,VALID,19.3977,VALID,160,VALID,0.332371,
2003-11-27, 01:51:00,VALID,916.75,VALID,0,VALID,99.5539,VALID,-0.0169808,VALID,19.3982,VALID,160,VALID,0.0923295,
2003-11-27, 01:52:00,VALID,916.754,VALID,0,VALID,99.5666,VALID,0,VALID,19.4016,VALID,154,VALID,0.286644,
2003-11-27, 01:53:00,VALID,916.748,VALID,0,VALID,99.5692,VALID,0,VALID,19.385,VALID,131,VALID,0.41495,
2003-11-27, 01:54:00,VALID,916.735,VALID,0,VALID,99.5298,VALID,0,VALID,19.3892,VALID,115,VALID,0.506177,
2003-11-27, 01:55:00,VALID,916.728,VALID,0,VALID,99.5819,VALID,0,VALID,19.3631,VALID,115,VALID,0.331926,
2003-11-27, 01:56:00,VALID,916.727,VALID,0,VALID,99.6518,VALID,0,VALID,19.3601,VALID,115,VALID,0.256771,
2003-11-27, 01:57:00,VALID,916.715,VALID,0,VALID,99.6671,VALID,0,VALID,19.35,VALID,126,VALID,0.673651,
2003-11-27, 01:58:00,VALID,916.72,VALID,0,VALID,99.6798,VALID,0,VALID,19.343,VALID,132,VALID,0.646257,
2003-11-27, 01:59:00,VALID,916.708,VALID,0,VALID,99.704,VALID,0.0339617,VALID,19.3336,VALID,132,VALID,0.629464,
2003-11-27, 02:00:00,VALID,916.704,VALID,0,VALID,99.7269,VALID,0,VALID,19.337,VALID,132,VALID,0.484933,
2003-11-27, 02:01:00,VALID,916.695,VALID,0,VALID,99.7663,VALID,0.0169808,VALID,19.3236,VALID,132,VALID,0.369531,
2003-11-27, 02:02:00,VALID,916.688,VALID,0,VALID,99.7752,VALID,0,VALID,19.3341,VALID,132,VALID,0.188834,
2003-11-27, 02:03:00,VALID,916.671,VALID,0,VALID,99.7955,VALID,0,VALID,19.3311,VALID,132,VALID,0.0239955,
2003-11-27, 02:04:00,VALID,916.676,VALID,0,VALID,99.8082,VALID,-0.0169808,VALID,19.3244,VALID,132,VALID,0,
2003-11-27, 02:05:00,VALID,916.676,VALID,0,VALID,99.7993,VALID,-0.0169808,VALID,19.3172,VALID,132,VALID,0,
2003-11-27, 02:06:00,VALID,916.67,VALID,0,VALID,99.8464,VALID,0,VALID,19.3174,VALID,130,VALID,0,
2003-11-27, 02:07:00,VALID,916.67,VALID,0,VALID,99.8973,VALID,0,VALID,19.3241,VALID,129,VALID,0,
2003-11-27, 02:08:00,VALID,916.674,VALID,0,VALID,99.9011,VALID,0,VALID,19.3341,VALID,129,VALID,0,
2003-11-27, 02:09:00,VALID,916.663,VALID,0,VALID,99.91,VALID,0,VALID,19.3299,VALID,129,VALID,0,
2003-11-27, 02:10:00,VALID,916.662,VALID,0,VALID,99.8807,VALID,-0.0339617,VALID,19.337,VALID,129,VALID,0,
2003-11-27, 02:11:00,VALID,916.653,VALID,0,VALID,99.8566,VALID,-0.0169808,VALID,19.3472,VALID,129,VALID,0,
2003-11-27, 02:12:00,VALID,916.643,VALID,0,VALID,99.8553,VALID,-0.0169808,VALID,19.3341,VALID,129,VALID,0.00290698,
2003-11-27, 02:13:00,VALID,916.638,VALID,0,VALID,99.821,VALID,-0.0169808,VALID,19.3306,VALID,129,VALID,0.191778,
2003-11-27, 02:14:00,VALID,916.613,VALID,0,VALID,99.7879,VALID,-0.0169808,VALID,19.3274,VALID,133,VALID,0.23971,
2003-11-27, 02:15:00,VALID,916.583,VALID,0,VALID,99.7765,VALID,0.0169808,VALID,19.3144,VALID,134,VALID,0.204215,
2003-11-27, 02:16:00,VALID,916.564,VALID,0,VALID,99.7815,VALID,-0.0169808,VALID,19.3179,VALID,134,VALID,0,
2003-11-27, 02:17:00,VALID,916.544,VALID,0,VALID,99.7815,VALID,0,VALID,19.3244,VALID,134,VALID,0,
2003-11-27, 02:18:00,VALID,916.527,VALID,0,VALID,99.7358,VALID,0,VALID,19.3274,VALID,134,VALID,0,
2003-11-27, 02:19:00,VALID,916.503,VALID,0,VALID,99.6862,VALID,0,VALID,19.305,VALID,134,VALID,0.0217226,
2003-11-27, 02:20:00,VALID,916.483,VALID,0,VALID,99.7014,VALID,0,VALID,19.3139,VALID,134,VALID,0.00104167,
2003-11-27, 02:21:00,VALID,916.466,VALID,0,VALID,99.723,VALID,-0.0679233,VALID,19.338,VALID,134,VALID,0,
2003-11-27, 02:22:00,VALID,916.435,VALID,0,VALID,99.7726,VALID,-0.118866,VALID,19.3546,VALID,134,VALID,0.00609756,
2003-11-27, 02:23:00,VALID,916.428,VALID,0,VALID,99.7421,VALID,-0.101885,VALID,19.3678,VALID,124,VALID,0.183919,
2003-11-27, 02:24:00,VALID,916.436,VALID,0,VALID,99.6963,VALID,-0.135847,VALID,19.3579,VALID,78,VALID,0.318859,
2003-11-27, 02:25:00,VALID,916.416,VALID,0,VALID,99.6722,VALID,-0.152827,VALID,19.3616,VALID,74,VALID,0.388579,
2003-11-27, 02:26:00,VALID,916.409,VALID,0,VALID,99.6391,VALID,-0.101885,VALID,19.3549,VALID,74,VALID,0.414608,
2003-11-27, 02:27:00,VALID,916.404,VALID,0,VALID,99.5743,VALID,-0.0849042,VALID,19.3385,VALID,74,VALID,0.454728,
2003-11-27, 02:28:00,VALID,916.402,VALID,0,VALID,99.4713,VALID,-0.101885,VALID,19.3127,VALID,74,VALID,0.495833,
2003-11-27, 02:29:00,VALID,916.393,VALID,0,VALID,99.3823,VALID,-0.101885,VALID,19.2868,VALID,64,VALID,0.567224,
2003-11-27, 02:30:00,VALID,916.381,VALID,0,VALID,99.3454,VALID,-0.101885,VALID,19.2739,VALID,62,VALID,0.44215,
2003-11-27, 02:31:00,VALID,916.372,VALID,0,VALID,99.3136,VALID,-0.101885,VALID,19.2448,VALID,62,VALID,0.379542,
2003-11-27, 02:32:00,VALID,916.36,VALID,0,VALID,99.3047,VALID,-0.118866,VALID,19.2448,VALID,62,VALID,0.285156,
2003-11-27, 02:33:00,VALID,916.346,VALID,0,VALID,99.2805,VALID,-0.101885,VALID,19.2322,VALID,62,VALID,0.343006,
2003-11-27, 02:34:00,VALID,916.331,VALID,0,VALID,99.2271,VALID,-0.101885,VALID,19.219,VALID,61,VALID,0.575068,
2003-11-27, 02:35:00,VALID,916.313,VALID,0,VALID,99.1699,VALID,-0.101885,VALID,19.1934,VALID,45,VALID,0.705412,
2003-11-27, 02:36:00,VALID,916.307,VALID,0,VALID,99.1826,VALID,-0.0339617,VALID,19.1728,VALID,35,VALID,0.82919,
2003-11-27, 02:37:00,VALID,916.293,VALID,0,VALID,99.1737,VALID,0,VALID,19.1564,VALID,43,VALID,0.712936,
2003-11-27, 02:38:00,VALID,916.288,VALID,0,VALID,99.133,VALID,-0.0169808,VALID,19.1306,VALID,51,VALID,0.761364,
2003-11-27, 02:39:00,VALID,916.279,VALID,0,VALID,99.0783,VALID,0,VALID,19.0919,VALID,54,VALID,0.642756,
2003-11-27, 02:40:00,VALID,916.273,VALID,0,VALID,99.1012,VALID,0,VALID,19.066,VALID,62,VALID,0.549162,
2003-11-27, 02:41:00,VALID,916.267,VALID,0,VALID,99.1368,VALID,0.0169808,VALID,19.0395,VALID,64,VALID,0.289844,
2003-11-27, 02:42:00,VALID,916.25,VALID,0,VALID,99.2068,VALID,-0.0169808,VALID,19.0305,VALID,64,VALID,0.151456,
2003-11-27, 02:43:00,VALID,916.23,VALID,0,VALID,99.2398,VALID,0.0169808,VALID,19.0208,VALID,62,VALID,0.21532,
2003-11-27, 02:44:00,VALID,916.223,VALID,0,VALID,99.2284,VALID,0,VALID,18.9982,VALID,59,VALID,0.00457317,
2003-11-27, 02:45:00,VALID,916.217,VALID,0,VALID,99.2704,VALID,0.0339617,VALID,18.9818,VALID,59,VALID,0.000173611,
2003-11-27, 02:46:00,VALID,916.197,VALID,0,VALID,99.3492,VALID,-0.0169808,VALID,18.9855,VALID,59,VALID,0.0974864,
2003-11-27, 02:47:00,VALID,916.182,VALID,0,VALID,99.3314,VALID,0,VALID,18.9823,VALID,59,VALID,0.285633,
2003-11-27, 02:48:00,VALID,916.177,VALID,0,VALID,99.2678,VALID,0,VALID,18.9466,VALID,69,VALID,0.567708,
2003-11-27, 02:49:00,VALID,916.172,VALID,0,VALID,99.2996,VALID,-0.0169808,VALID,18.9274,VALID,73,VALID,0.62314,
2003-11-27, 02:50:00,VALID,916.168,VALID,0,VALID,99.3644,VALID,-0.0169808,VALID,18.9048,VALID,83,VALID,0.60774,
2003-11-27, 02:51:00,VALID,916.169,VALID,0,VALID,99.4166,VALID,-0.0339617,VALID,18.8725,VALID,92,VALID,0.636446,
2003-11-27, 02:52:00,VALID,916.163,VALID,0,VALID,99.5056,VALID,0,VALID,18.8499,VALID,96,VALID,0.713224,
2003-11-27, 02:53:00,VALID,916.155,VALID,0,VALID,99.5946,VALID,0,VALID,18.8338,VALID,96,VALID,0.662464,
2003-11-27, 02:54:00,VALID,916.156,VALID,0,VALID,99.6556,VALID,0.0169808,VALID,18.8142,VALID,96,VALID,0.509266,
2003-11-27, 02:55:00,VALID,916.146,VALID,0,VALID,99.7383,VALID,-0.0339617,VALID,18.8112,VALID,96,VALID,0.387386,
2003-11-27, 02:56:00,VALID,916.146,VALID,0,VALID,99.7828,VALID,-0.0509425,VALID,18.8209,VALID,96,VALID,0.254542,
2003-11-27, 02:57:00,VALID,916.13,VALID,0,VALID,99.8286,VALID,0,VALID,18.8306,VALID,92,VALID,0.205221,
2003-11-27, 02:58:00,VALID,916.12,VALID,0,VALID,99.8502,VALID,0,VALID,18.8402,VALID,92,VALID,0.254861,
2003-11-27, 02:59:00,VALID,916.119,VALID,0,VALID,99.8121,VALID,0.0169808,VALID,18.843,VALID,92,VALID,0.162946,
2003-11-27, 03:00:00,VALID,916.125,VALID,0,VALID,99.8477,VALID,0,VALID,18.8529,VALID,92,VALID,0.0485491,
2003-11-27, 03:01:00,VALID,916.126,VALID,0,VALID,99.8833,VALID,0,VALID,18.882,VALID,92,VALID,0,
2003-11-27, 03:02:00,VALID,916.13,VALID,0,VALID,99.896,VALID,0.0169808,VALID,18.9115,VALID,92,VALID,0,
2003-11-27, 03:03:00,VALID,916.141,VALID,0,VALID,99.8655,VALID,0,VALID,18.9207,VALID,92,VALID,0,
2003-11-27, 03:04:00,VALID,916.138,VALID,0,VALID,99.8146,VALID,0,VALID,18.9175,VALID,92,VALID,0,
2003-11-27, 03:05:00,VALID,916.136,VALID,0,VALID,99.7599,VALID,0,VALID,18.9108,VALID,92,VALID,0,
2003-11-27, 03:06:00,VALID,916.131,VALID,0,VALID,99.6887,VALID,0,VALID,18.9182,VALID,92,VALID,0,
2003-11-27, 03:07:00,VALID,916.137,VALID,0,VALID,99.6493,VALID,0.0169808,VALID,18.9053,VALID,92,VALID,0,
2003-11-27, 03:08:00,VALID,916.133,VALID,0,VALID,99.6328,VALID,-0.0169808,VALID,18.9155,VALID,92,VALID,0.15625,
2003-11-27, 03:09:00,VALID,916.121,VALID,0,VALID,99.5819,VALID,0,VALID,18.9088,VALID,95,VALID,0.503906,
2003-11-27, 03:10:00,VALID,916.115,VALID,0,VALID,99.5844,VALID,-0.0169808,VALID,18.9023,VALID,120,VALID,0.697222,
2003-11-27, 03:11:00,VALID,916.109,VALID,0,VALID,99.6607,VALID,0,VALID,18.9254,VALID,124,VALID,0.811756,
2003-11-27, 03:12:00,VALID,916.118,VALID,0,VALID,99.6735,VALID,-0.0169808,VALID,18.9346,VALID,130,VALID,0.787464,
2003-11-27, 03:13:00,VALID,916.124,VALID,0,VALID,99.6747,VALID,-0.0169808,VALID,18.951,VALID,137,VALID,0.767805,
2003-11-27, 03:14:00,VALID,916.129,VALID,0,VALID,99.6417,VALID,-0.0169808,VALID,18.954,VALID,136,VALID,0.851381,
2003-11-27, 03:15:00,VALID,916.116,VALID,0,VALID,99.6213,VALID,-0.0339617,VALID,18.9634,VALID,128,VALID,0.714753,
2003-11-27, 03:16:00,VALID,916.118,VALID,0,VALID,99.5488,VALID,-0.0339617,VALID,18.98,VALID,125,VALID,0.888081,
2003-11-27, 03:17:00,VALID,916.117,VALID,0,VALID,99.5437,VALID,0,VALID,18.9863,VALID,122,VALID,0.884375,
2003-11-27, 03:18:00,VALID,916.101,VALID,0,VALID,99.4624,VALID,0.0169808,VALID,19.0252,VALID,121,VALID,0.816406,
2003-11-27, 03:19:00,VALID,916.109,VALID,0,VALID,99.3861,VALID,-0.0169808,VALID,19.0446,VALID,122,VALID,0.708576,
2003-11-27, 03:20:00,VALID,916.113,VALID,0,VALID,99.3861,VALID,-0.0169808,VALID,19.0474,VALID,123,VALID,0.759084,
2003-11-27, 03:21:00,VALID,916.12,VALID,0,VALID,99.4013,VALID,-0.0169808,VALID,19.0734,VALID,124,VALID,0.721475,
2003-11-27, 03:22:00,VALID,916.124,VALID,0,VALID,99.4128,VALID,-0.0339617,VALID,19.067,VALID,126,VALID,0.77939,
2003-11-27, 03:23:00,VALID,916.128,VALID,0,VALID,99.4204,VALID,-0.0169808,VALID,19.0705,VALID,123,VALID,0.706143,
2003-11-27, 03:24:00,VALID,916.127,VALID,0,VALID,99.4903,VALID,-0.0169808,VALID,19.0866,VALID,111,VALID,0.779204,
2003-11-27, 03:25:00,VALID,916.132,VALID,0,VALID,99.6391,VALID,-0.0169808,VALID,19.0831,VALID,111,VALID,0.817894,
2003-11-27, 03:26:00,VALID,916.113,VALID,0,VALID,99.7294,VALID,-0.0169808,VALID,19.106,VALID,111,VALID,0.81715,
2003-11-27, 03:27:00,VALID,916.111,VALID,0,VALID,99.7777,VALID,0,VALID,19.1154,VALID,115,VALID,0.956577,
2003-11-27, 03:28:00,VALID,916.108,VALID,0,VALID,99.7459,VALID,0,VALID,19.1179,VALID,109,VALID,0.971294,
2003-11-27, 03:29:00,VALID,916.104,VALID,0,VALID,99.7294,VALID,-0.0169808,VALID,19.1385,VALID,98,VALID,0.585175,
2003-11-27, 03:30:00,VALID,916.103,VALID,0,VALID,99.7116,VALID,-0.0169808,VALID,19.144,VALID,95,VALID,0.442645,
2003-11-27, 03:31:00,VALID,916.09,VALID,0,VALID,99.6824,VALID,0,VALID,19.1539,VALID,99,VALID,0.463663,
2003-11-27, 03:32:00,VALID,916.088,VALID,0,VALID,99.6455,VALID,-0.0339617,VALID,19.1604,VALID,99,VALID,0.235828,
2003-11-27, 03:33:00,VALID,916.075,VALID,0,VALID,99.5933,VALID,-0.0169808,VALID,19.1703,VALID,99,VALID,0.293826,
2003-11-27, 03:34:00,VALID,916.07,VALID,0,VALID,99.5221,VALID,0,VALID,19.177,VALID,99,VALID,0.475561,
2003-11-27, 03:35:00,VALID,916.07,VALID,0,VALID,99.4636,VALID,-0.0339617,VALID,19.1837,VALID,99,VALID,0.463299,
2003-11-27, 03:36:00,VALID,916.063,VALID,0,VALID,99.3886,VALID,-0.0169808,VALID,19.187,VALID,103,VALID,0.509146,
2003-11-27, 03:37:00,VALID,916.067,VALID,0,VALID,99.2564,VALID,0,VALID,19.1636,VALID,118,VALID,0.877308,